Regional Weather Roundup
Issued by NWS Kansas City/Pleasant Hill, MO

Home | Current Version | Previous Version | Graphics & Text | Print | Product List | Glossary Off
Versions: 1 2 3 4 5 6 7 8 9 10 11 12 13 14 15 16 17 18 19 20 21 22 23 24 25 26 27 28 29 30 31 32 33 34 35 36 37 38 39 40 41 42 43 44 45 46 47 48 49 50

286
ASUS43 KEAX 192110
RWREAX

WEATHER ROUNDUP FOR EASTERN KANSAS AND NORTHWEST MISSOURI
NATIONAL WEATHER SERVICE KANSAS CITY/PLEASANT HILL MO
300 PM CST SUN FEB 19 2017

KSZ040-057-103>105-MOZ028-029-037-043-192200-
...KANSAS CITY METROPOLITAN AREA...

CITY           SKY/WX    TMP DP  RH WIND       PRES   REMARKS
K.C. INTL      PTSUNNY   73  54  51 S15       29.89F
K.C. DOWNTOWN  SUNNY     76  54  46 S12       29.88F
LEES SUMMIT    SUNNY     75  54  47 S17G23    29.90F
OLATHE - IXD   SUNNY     73  55  53 S15       29.89F
OLATHE - OJC   MOSUNNY   72  56  57 S18       29.89F
LAWRENCE       SUNNY     73  57  57 S15       29.88F

$$

MOZ001>008-011>017-020>025-030>033-038>040-044>046-053-054-192200-
...NORTHERN AND CENTRAL MISSOURI...

CITY           SKY/WX    TMP DP  RH WIND       PRES   REMARKS
ST. JOSEPH     MOSUNNY   73  53  49 S20       29.87F
WARRENSBURG    SUNNY     73  48  40 S7        29.91F
WHITEMAN AFB   SUNNY     76  48  37 S14       29.91F
CLINTON        SUNNY     77  54  44 S8        29.92F
SEDALIA        SUNNY     78  45  30 S15       29.94F
WARSAW         NOT AVBL
CHILLICOTHE      N/A     73  50  44 S13G18    29.92F
KIRKSVILLE     MOSUNNY   72  48  42 S12       29.96F

$$

MOZ041-047>049-056>058-063>065-088>090-097-192200-
...EASTERN AND SOUTHERN MISSOURI...

CITY           SKY/WX    TMP DP  RH WIND       PRES   REMARKS
ST. LOUIS INTL MOSUNNY   71  51  49 SE10      30.03F
SPIRIT OF STL  PTSUNNY   73  51  46 E10       30.00F
COLUMBIA       MOSUNNY   75  49  39 S14G21    29.97F
JEFFERSON CITY MOSUNNY   76  48  37 SE14      29.96F
ROLLA          SUNNY     75  47  36 S12       29.98S
OSAGE BEACH    SUNNY     77  49  37 S7G16     29.96F
SPRINGFIELD    SUNNY     73  56  54 SE13      29.95F
BRANSON        PTSUNNY   75  57  53 SE10      29.97F
JOPLIN         SUNNY     77  55  46 S10       29.91F
WEST PLAINS    CLOUDY    65  56  72 SE9       30.04F

$$

IAZ060-094-KSZ022-034>040-054-083-096-NEZ052-066-093-192200-
...KANSAS...SOUTHEAST NEBRASKA AND IOWA...

CITY           SKY/WX    TMP DP  RH WIND       PRES   REMARKS
TOPEKA         PTSUNNY   65  55  70 S14       29.88S
MANHATTAN      CLOUDY    63  52  67 S12       29.86F
EMPORIA        CLOUDY    60  54  80 S13       29.89F
CHANUTE        SUNNY     72  55  55 S13       29.90F
WICHITA        CLOUDY    62  55  77 S16       29.85F
OMAHA          CLOUDY    69  48  47 S18       29.81F
LINCOLN        MOSUNNY   73  49  42 S22G32    29.78F
FALLS CITY     SUNNY     71  52  50 S17G30    29.85F
LAMONI         MOSUNNY   71  47  42 S22G30    29.89F
DES MOINES     CLOUDY    73  46  38 S18       29.89S

$$





USA.gov is the U.S. government's official web portal to all federal, state and local government web resources and services.